Hourly Data Report for October 20, 2013

All times are specified in Local Standard Time (LST). Add 1 hour to adjust for Daylight Saving Time where and when it is observed.

FORT LIARD
NORTHWEST TERRITORIES

60°14'00.000" N
123°28'00.000" W
213.40 m
2201579
71497
WJL

Download Data

Hourly Data (October 2013)
Hourly Data Report for October 20, 2013
Temp Definition
°C
Dew Point Temp Definition
°C
Rel Hum Definition
%
Wind Dir Definition
10's deg

Wind Spd Definition
km/h
Visibility Definition
km
Stn Press Definition
kPa
Hmdx Definition


Wind Chill Definition


Weather Definition


TIME
00:00 11.9 4.6 61 22 9   98.34     LegendNANA
01:00 13.5 4.8 56 24 13   98.31     LegendNANA
02:00 14.7 4.2 49 24 13   98.33     LegendNANA
03:00 14.8 3.8 48 24 22   98.29     LegendNANA
04:00 15.3 3.2 44 25 22   98.32     LegendNANA
05:00 14.9 2.7 44 22 13   98.29     LegendNANA
06:00 14.8 2.3 43 23 11   98.25     LegendNANA
07:00 14.1 1.8 43 15 15   98.23     LegendNANA
08:00 15.8 0.1 34 25 32   98.25     LegendNANA
09:00 16.0 0.1 34 26 26   98.34     LegendNANA
10:00 16.0 0.9 36 25 17   98.43     LegendNANA
11:00 17.5 0.9 33 26 11   98.44     LegendNANA
12:00 16.8 0.8 34 25 20   98.45     LegendNANA
13:00 16.8 0.6 33 26 15   98.46     LegendNANA
14:00 18.6 0.1 29 26 9   98.49     LegendNANA
15:00 17.2 -0.4 30 24 9   98.47     LegendNANA
16:00 16.6 0.0 32 24 7   98.48     LegendNANA
17:00 17.0 0.0 32 25 4   98.48     LegendNANA
18:00 13.4 0.8 42 20 4   98.51     LegendNANA
19:00 13.6 1.0 42 24 13   98.55     LegendNANA
20:00 13.0 1.4 45 28 6   98.58     LegendNANA
21:00 11.7 1.8 51 25 9   98.61     LegendNANA
22:00 12.7 1.4 46 24 19   98.59     LegendNANA
23:00 12.3 1.4 47 26 7   98.63     LegendNANA

Notes on Data Quality.

Legend

  • E = Estimated
  • M = Missing
  • NA = Not Available
  • ‡ = Partner data that is not subject to review by the National Climate Archives
Date modified: